GPS BIIRM-6 (PRN 07) (32711 NORAD) Tracking and Keplerian Element Data

This shows tracking and keplerian element data for the satellite.

Feedback or suggestion? Click here.




ElementValue
Catalog32711
NameGPS BIIRM-6 (PRN 07)
Epoch Orbit7577
Epoch Day198.38371731
Epoch Year2018
RAAN265.7306
Inclination54.8964
Eccentricity0.0120438
Argument of Perigee216.9306
Mean Anonmoly142.3077
Mean Motion2.00565964
Decay Rate-2E-07
L11 32711U 08012A 18198.38371731 -.00000020 00000-0 00000-0 0 9998
L22 32711 54.8964 265.7306 0120438 216.9306 142.3077 2.00565964 75773

Live tracking and technical data element details for GPS BIIRM-6 (PRN 07) (NORAD 32711). GPS BIIRM-6 (PRN 07) can be tracked NOW for your location showing map with azimuth and elevation plus other details from your city location.

Track the satellite on the map from your city or location and see movement details for azimuth, elevation, latitude, longitude, range, height, and movement on the map or in text.







IsCatalogInMostPopularTable: catalog: 32711, numindb: 39
Update: records affected: 1



GetName: 32711 GPS BIIRM-6 (PRN 07)

Hit Count: updated at: Thu, 19 Jul 2018 21:15:45 GMT